GONETS-M 20 (47227 NORAD) Tracking and Keplerian Element Data
This shows tracking and keplerian element data for the satellite.
Feedback or suggestion? Click here.
Element | Value |
Catalog | 47227 |
Name | GONETS-M 20 |
Epoch Orbit | 1665 |
Epoch Day | 106.09916412 |
Epoch Year | 2021 |
RAAN | 35.9985 |
Inclination | 82.508 |
Eccentricity | 0.0020875 |
Argument of Perigee | 345.4546 |
Mean Anonmoly | 14.5931 |
Mean Motion | 12.42884211 |
Decay Rate | 2.4E-07 |
L1 | 1 47227U 20091A 21106.09916412 .00000024 00000-0 10000-3 0 9996 |
L2 | 2 47227 82.5080 35.9985 0020875 345.4546 14.5931 12.42884211 16653 |
Live tracking and technical data element details for GONETS-M 20 (NORAD 47227). GONETS-M 20 can be tracked NOW for your location showing map with azimuth and elevation plus other details from your city location.
Track the satellite on the map from your city or location and see movement details for azimuth, elevation, latitude, longitude, range, height, and movement on the map or in text.
IsCatalogInMostPopularTable: catalog: 47227, numindb: 48
Update: records affected: 1
GetName: 47227 GONETS-M 20
Hit Count: updated at: Fri, 16 Apr 2021 10:41:09 GMT